星链-5874 (STARLINK-5874 )

导读

STARLINK-5874是美国太空探索技术公司SpaceX星链星座中的一颗卫星,于2023年4月27日发射入轨,属于星链低轨互联网卫星项目,该项目旨在为全球提供高速卫星互联网接入服务,这类卫星部署在近地轨道,是全球低轨巨型卫星星座组网的组成部分。

基本信息
目录编号:
56353
目录名称:
STARLINK-5874
国际标识:
2023-058AN
轨道中心:
EARTH
卫星名称:
星链-5874
卫星全名:
星链-5874 (STARLINK-5874 )
卫星状态:
在轨 (已飞行1234 天)
发射日期:
2023-04-27 UTC
国别 :
美国 (US)
星等 :
--
该卫星已列入 空间交会检测服务 Space Conjunction Data Service (SCDS) ,当前飞行风险评估等级: 无高风险
轨道信息
数据来源 国际轨道数据
星历时间: 2026-09-12T13:37:32+0800
9小时前
查看轨道信息
半长轴: 6911.969km
偏心率: 0.0002096
轨道倾角: 97.285°
近地点辐角 73.805°
升交点赤经 249.489°
平近点角 286.341°
近地点: 532.383km
远地点: 535.281km
周期: 95.315分钟
每日圈数: 15.107762
详细信息
固有亮度:
5
最大亮度:
2.5
卫星平台:
Starlink v1.5
覆盖范围:
全球
运营商:
太空探索技术公司
运营商所在国:
美国
制造商(研发单位):
太空探索技术公司
制造商所在国:
美国
使用方式:
暂无
卫星简介
星链(Starlink)计划是由太空探索技术公司(SpaceX)提出的一个巨型低轨卫星互联网星座项目,计划在2019年至2024年间在太空搭建由约1.2万颗卫星组成的“星链”网络,其中1584颗将部署在地球上空550千米处的近地轨道,并从2020年开始工作。该卫星仍在工作。
2D轨道图
3D轨道图
轨道高度分析图
轨道倾角分析图
轨道综合分析图
查看轨道综合分析图
交会数据列表
事件ID 空间交会对象 最接近时刻(TCA) 交会距离 交会风险概率(CRP) 交会风险指数(CRI) 操作
CDM_260916-064705-633705-635321
2026-09-16T
06:47:13+0000
1.743 km
极远距离
5.055131E-7 极低风险 0.29
与全量物体交会距离演化趋势
与全量物体交会风险概率演化趋势